Regional Weather Roundup
Issued by NWS Cleveland, OH

Home | Current Version | Previous Version | Text Only | Print | Product List | Glossary Off
Versions: 1 2 3 4 5 6 7 8 9 10 11 12 13 14 15 16 17 18 19 20 21 22 23 24 25 26 27 28 29 30 31 32 33 34 35 36 37 38 39 40 41 42 43 44 45 46 47 48 49 50

000
ASUS41 KCLE 170412
RWRCLE
OHIO REGIONAL WEATHER ROUNDUP
NATIONAL WEATHER SERVICE WILMINGTON, OH
1100 PM EST TUE JAN 16 2018

NOTE: "FAIR" INDICATES FEW OR NO CLOUDS BELOW 12,000 FEET WITH NO
SIGNIFICANT WEATHER AND/OR OBSTRUCTIONS TO VISIBILITY.

OHZ001>008-015>018-024>027-034-035-043-044-170500-
   NORTHWEST OHIO

CITY           SKY/WX    TMP DP  RH WIND       PRES   REMARKS
DEFIANCE       FAIR       1  -4  79 CALM      30.51S
FINDLAY        CLOUDY     7   0  73 W12       30.50R WCI  -8
TOLEDO EXPRESS LGT SNOW   3   0  87 SW8       30.49F FOG     WCI -10
TOLEDO EXEC    CLOUDY     4  -2  76 SW10      30.51S HAZE    WCI -11
LIMA           FLURRIES   6   2  83 SW9       30.49S WCI  -8
$$

OHZ009>014-019>023-028>033-038-089-170500-
   NORTHEAST OHIO

CITY           SKY/WX    TMP DP  RH WIND       PRES   REMARKS
CLE-HOPKINS    FAIR       3  -3  76 SW7       30.51R WCI  -9
CLE-LAKEFRONT  FAIR       4  -3  73 SW9       30.50R WCI -10
CUY CO. ARPT   PTCLDY     5   0  78 SW14      30.47S WCI -12
LORAIN-ELYRIA  MOCLDY     0  -7  72 SW10      30.49S WCI -16
ASHTABULA      LGT SNOW  10   5  80 W12       30.44R WCI  -5
AKRON-CANTON   FAIR       2  -4  76 W8        30.45R WCI -12
WOOSTER        CLOUDY     2  -2  83 W6        30.47R WCI  -9
MANSFIELD      FAIR       1  -3  83 SW8       30.45R WCI -13
YOUNGSTOWN     FLURRIES   6   1  80 W9        30.43R WCI  -8
$$

OHZ042-051>053-060>062-070>072-077>081-170500-
  SOUTHWEST OHIO

CITY           SKY/WX    TMP DP  RH WIND       PRES   REMARKS
CINC-COVINGTON FLURRIES   8   4  83 W8        30.55S WCI  -4
CINC-LUNKEN    CLOUDY    10   3  73 W6        30.61S WCI   0
HAMILTON       CLOUDY     9   2  73 W7        30.59S WCI  -2
DAYTON         CLOUDY     6   2  83 W10       30.52S WCI  -9
WRIGHT-PAT AFB CLOUDY     6  -2  69 SW6       30.54R WCI  -4
DAYTON GENERAL CLOUDY     7   0  73 W7        30.53R WCI  -5
WILMINGTON     CLOUDY     7   2  80 W8        30.52R WCI  -6
$$

OHZ036-037-039>041-045>050-054>059-063>069-073>076-082>088-170500-
  CENTRAL AND SOUTHEAST OHIO

CITY           SKY/WX    TMP DP  RH WIND       PRES   REMARKS
COLUMBUS       FLURRIES   7   2  80 W9        30.54R WCI  -7
OSU AIRPORT    CLOUDY     6   1  80 W9        30.53R WCI  -8
BOLTON FIELD   LGT SNOW   5   1  82 CALM      30.54R
RICKENBACK AFB CLOUDY     6   1  79 W7        30.55R WCI  -6
NEWARK         CLOUDY     6   1  80 W7        30.52R WCI  -6
MARION         CLOUDY     3  -2  79 W6        30.50S WCI  -8
LANCASTER      CLOUDY     5   0  79 W5        30.53S WCI  -4
ZANESVILLE     CLOUDY     5  -1  76 SW5       30.51S WCI  -4
NEW PHILLY     FAIR      -1  -5  82 CALM      30.51R
$$




USA.gov is the U.S. government's official web portal to all federal, state and local government web resources and services.